FW6124 Bellingham WA US current weather conditions

sailwx.info

Wind from 091

Air temperature 12.8° C
Dewpoint 9.8° C

Last reported at 2020-Jul-13 14:01 UTC.
Time now 2020-Jul-13 14:54 UTC

Location: N 48°45' W 122°24'.
View on Google Maps.

See reports from other nearby stations

  
Tides and Currents Weather Stations Pressure Air Temp Water Temp Dewpoint Dewpoint Depression Visibility Wind Speed Wind Dir Waves Ship Positions
date/time (UTC)wind fromknots sea level pressurealtimeterstation pressurevisibilityair tempwater tempwave heightnotes
2020-Jul-13 14:01 091 12.8
2020-Jul-13 13:45 123 11.7
2020-Jul-13 13:31 109 10.0
2020-Jul-13 13:00 181 8.3
2020-Jul-13 12:45 203 8.3
2020-Jul-13 12:30 207 8.3
2020-Jul-13 12:00 143 8.3
2020-Jul-13 11:45 215 8.3
2020-Jul-13 11:30 194 8.9
2020-Jul-13 11:00 148 8.9
2020-Jul-13 10:45 196 9.4
2020-Jul-13 10:31 194 9.4
2020-Jul-13 10:17 194 10.0
2020-Jul-13 10:02 194 10.6
2020-Jul-13 09:47 143 10.6
2020-Jul-13 09:31 127 11.1
2020-Jul-13 09:17 175 11.1
2020-Jul-13 09:01 123 11.1
2020-Jul-13 08:46 115 11.1
2020-Jul-13 08:31 113 10.6
2020-Jul-13 08:19 161 10.6
2020-Jul-13 08:02 160 10.6
2020-Jul-13 07:47 158 10.6
2020-Jul-13 07:31 168 10.0
2020-Jul-13 07:16 209 10.0
2020-Jul-13 07:02 182 10.0
2020-Jul-13 06:46 213 10.0
2020-Jul-13 06:32 210 10.6
2020-Jul-13 06:16 210 10.6
2020-Jul-13 06:00 205 11.1
2020-Jul-13 05:45 128 11.7
2020-Jul-13 05:31 143 11.7
2020-Jul-13 05:16 142 12.2
2020-Jul-13 05:00 170 12.8
2020-Jul-13 04:45 183 12.8
2020-Jul-13 04:30 183 13.3
2020-Jul-13 04:15 088 14.4
2020-Jul-13 04:00 123 14.4
2020-Jul-13 03:46 122 15.0
2020-Jul-13 03:30 126 15.6
2020-Jul-13 03:15 202 0 gusting 6 16.1
2020-Jul-13 03:00 221 1 gusting 6 16.1
2020-Jul-13 02:45 216 0 gusting 5 16.7
2020-Jul-13 02:30 229 17.2
2020-Jul-13 02:15 195 1 gusting 6 17.8
2020-Jul-13 02:00 209 1 gusting 7 18.3
2020-Jul-13 01:45 224 1 gusting 6 18.3
2020-Jul-13 01:30 226 3 gusting 10 18.9
2020-Jul-13 01:15 198 1 gusting 6 20.0
2020-Jul-13 01:00 083 0 gusting 7 20.0
2020-Jul-13 00:45 270 20.6
2020-Jul-13 00:30 219 2 gusting 6 20.6
2020-Jul-13 00:15 234 20.6
2020-Jul-13 00:00 321 20.6
2020-Jul-12 23:45 322 0 gusting 8 20.6
2020-Jul-12 23:30 284 2 gusting 11 21.1
2020-Jul-12 23:15 254 1 gusting 9 20.6
2020-Jul-12 23:00 267 20.6
2020-Jul-12 22:45 254 3 gusting 7 20.0
2020-Jul-12 22:30 105 19.4
2020-Jul-12 22:15 084 19.4
2020-Jul-12 22:00 088 1 gusting 7 20.0
2020-Jul-12 21:45 090 20.0
2020-Jul-12 21:31 273 0 gusting 8 18.3
2020-Jul-12 21:17 229 0 gusting 6 17.8
2020-Jul-12 21:02 304 18.3
2020-Jul-12 20:47 229 3 gusting 7 17.8
2020-Jul-12 20:31 244 17.8
2020-Jul-12 20:17 288 1 gusting 8 17.8
2020-Jul-12 20:00 032 18.3
2020-Jul-12 19:48 205 1 gusting 4 17.8
2020-Jul-12 19:31 296 0 gusting 5 17.2
2020-Jul-12 19:16 163 17.2
2020-Jul-12 19:01 155 16.7
2020-Jul-12 18:46 056 16.7
2020-Jul-12 18:31 080 2 gusting 5 17.2
2020-Jul-12 18:16 072 15.6
2020-Jul-12 18:00 058 0 gusting 4 15.0
2020-Jul-12 17:46 119 15.0
2020-Jul-12 17:31 181 0 gusting 6 15.6
2020-Jul-12 17:16 063 16.1
2020-Jul-12 17:01 101 16.1
2020-Jul-12 16:46 027 1 gusting 5 16.7
2020-Jul-12 16:31 117 15.6
2020-Jul-12 16:16 296 16.7
2020-Jul-12 16:01 360 0 gusting 4 16.7
2020-Jul-12 15:46 084 0 gusting 3 16.1
2020-Jul-12 15:31 111 0 gusting 3 14.4
2020-Jul-12 15:15 082 13.3
2020-Jul-12 15:00 129 13.3
2020-Jul-12 14:45 295 13.3
2020-Jul-12 14:30 202 13.3
2020-Jul-12 14:15 267 13.3
2020-Jul-12 14:01 219 1 gusting 7 13.3
2020-Jul-12 13:45 207 13.3
2020-Jul-12 13:30 265 0 gusting 8 13.3
2020-Jul-12 13:15 178 13.3
2020-Jul-12 13:00 206 13.3
2020-Jul-12 12:45 202 13.3
2020-Jul-12 12:30 215 13.3
2020-Jul-12 12:15 229 13.3
2020-Jul-12 12:00 223 0 gusting 6 13.3
2020-Jul-12 11:45 194 13.3
2020-Jul-12 11:30 215 13.3
2020-Jul-12 11:15 206 13.3
2020-Jul-12 11:00 136 13.3
2020-Jul-12 10:45 215 13.3
2020-Jul-12 10:30 219 13.3
2020-Jul-12 10:15 222 13.3
2020-Jul-12 10:00 183 13.3
2020-Jul-12 09:45 178 13.3
2020-Jul-12 09:31 126 13.9
2020-Jul-12 09:16 162 13.9
2020-Jul-12 09:02 205 1 gusting 8 13.9
2020-Jul-12 08:47 134 0 gusting 9 13.9
2020-Jul-12 08:32 230 13.9
2020-Jul-12 08:17 205 1 gusting 8 13.9
2020-Jul-12 08:01 195 0 gusting 9 13.9
2020-Jul-12 07:47 022 13.9
2020-Jul-12 07:32 101 0 gusting 9 13.9
2020-Jul-12 07:18 117 0 gusting 8 13.9
2020-Jul-12 07:01 145 13.9
2020-Jul-12 06:46 205 1 gusting 7 13.9
2020-Jul-12 06:32 107 0 gusting 5 13.9
2020-Jul-12 06:16 276 13.9
2020-Jul-12 06:02 194 0 gusting 6 13.9
2020-Jul-12 05:46 087 1 gusting 10 13.9
2020-Jul-12 05:31 085 13.9
2020-Jul-12 05:16 132 0 gusting 6 13.9
2020-Jul-12 05:00 087 13.9
2020-Jul-12 04:46 115 13.9
2020-Jul-12 04:31 172 13.9
2020-Jul-12 04:15 130 13.9
2020-Jul-12 04:01 103 13.9
2020-Jul-12 03:46 092 13.9
2020-Jul-12 03:32 092 14.4
2020-Jul-12 03:16 109 14.4
2020-Jul-12 03:01 100 14.4
2020-Jul-12 02:46 117 14.4
2020-Jul-12 02:31 117 15.0
2020-Jul-12 02:16 115 15.0
2020-Jul-12 02:00 137 15.0
2020-Jul-12 01:46 159 15.0
2020-Jul-12 01:31 159 15.6
2020-Jul-12 01:17 159 15.6
2020-Jul-12 01:01 158 15.6
2020-Jul-12 00:46 159 16.1
2020-Jul-12 00:31 131 17.2
2020-Jul-12 00:17 099 0 gusting 3 17.2
2020-Jul-12 00:00 171 16.7
2020-Jul-11 23:45 235 16.7
2020-Jul-11 23:30 291 16.7
2020-Jul-11 23:16 252 17.2
2020-Jul-11 23:00 250 1 gusting 4 17.2
2020-Jul-11 22:45 304 17.8
2020-Jul-11 22:30 302 17.2
2020-Jul-11 22:15 288 17.2
2020-Jul-11 22:00 161 17.2
2020-Jul-11 21:45 199 17.8
2020-Jul-11 21:30 228 1 gusting 5 18.9
2020-Jul-11 21:15 246 17.8
2020-Jul-11 21:02 240 18.3
2020-Jul-11 20:47 243 17.2
2020-Jul-11 20:32 217 17.2
2020-Jul-11 20:16 218 17.8
2020-Jul-11 20:03 085 17.8
2020-Jul-11 19:46 042 17.8
2020-Jul-11 19:31 215 17.2
2020-Jul-11 19:17 215 16.7
2020-Jul-11 19:03 225 1 gusting 6 17.2
2020-Jul-11 18:46 237 0 gusting 6 16.7
2020-Jul-11 18:31 219 16.7
2020-Jul-11 18:01 124 16.1
2020-Jul-11 17:46 199 2 gusting 7 16.7
2020-Jul-11 17:32 086 16.7
2020-Jul-11 17:16 084 16.7
2020-Jul-11 17:02 049 16.7
2020-Jul-11 16:46 058 15.6
2020-Jul-11 16:16 041 0 gusting 3 15.6
2020-Jul-11 16:01 045 15.0
2020-Jul-11 15:46 355 15.6
2020-Jul-11 15:31 058 15.6
2020-Jul-11 15:16 065 15.6
2020-Jul-11 15:01 059 1 gusting 3 15.0
2020-Jul-11 14:47 061 13.9
2020-Jul-11 14:30 098 13.9
2020-Jul-11 14:16 122 13.3
2020-Jul-11 14:00 083 12.8